Meteo pe oră la Alingsas

Astăzi, 20 Ianuarie, Miercuri

Timp Temperatura Precipitaţii Vânt Presiune Umiditate
00:00 +1°C° 0 mm 2 m/s 741 mmHg 98%
01:00 +1°C° 0 mm 2 m/s 741 mmHg 98%
02:00 +1°C° 0 mm 2 m/s 740 mmHg 98%
03:00 +1°C° 0 mm 2 m/s 740 mmHg 98%
04:00 0°C° 0 mm 3 m/s 739 mmHg 98%
05:00 0°C° 0.1 mm 3 m/s 739 mmHg 97%
06:00 +1°C° 0.1 mm 3 m/s 738 mmHg 97%
07:00 +1°C° 0.1 mm 3 m/s 737 mmHg 97%
08:00 0°C° 1.1 mm 4 m/s 737 mmHg 97%
09:00 0°C° 1.1 mm 4 m/s 736 mmHg 97%
10:00 0°C° 1.1 mm 4 m/s 735 mmHg 97%
11:00 +1°C° 1.3 mm 4 m/s 735 mmHg 97%
12:00 +1°C° 1.3 mm 4 m/s 734 mmHg 97%
13:00 +3°C° 1.3 mm 3 m/s 734 mmHg 97%
14:00 +3°C° 1.3 mm 3 m/s 733 mmHg 97%
15:00 +3°C° 1.3 mm 4 m/s 733 mmHg 97%
16:00 +4°C° 1.3 mm 4 m/s 733 mmHg 97%
17:00 +4°C° 0.3 mm 4 m/s 733 mmHg 97%
18:00 +4°C° 0.3 mm 4 m/s 733 mmHg 97%
19:00 +4°C° 0.3 mm 4 m/s 733 mmHg 97%
20:00 +4°C° 0.6 mm 4 m/s 733 mmHg 97%
21:00 +4°C° 0.6 mm 4 m/s 734 mmHg 96%
22:00 +3°C° 0.6 mm 5 m/s 734 mmHg 96%
23:00 +3°C° 1.1 mm 5 m/s 734 mmHg 96%

Mâine, 21 Ianuarie, Joi

Timp Temperatura Precipitaţii Vânt Presiune Umiditate
00:00 +3°C° 1.1 mm 5 m/s 734 mmHg 96%
01:00 +3°C° 1.1 mm 5 m/s 734 mmHg 96%
02:00 +2°C° 0.9 mm 5 m/s 733 mmHg 94%
03:00 +2°C° 0.9 mm 5 m/s 733 mmHg 92%
04:00 +2°C° 0.9 mm 5 m/s 733 mmHg 91%
05:00 +2°C° 0 mm 5 m/s 733 mmHg 90%
06:00 +2°C° 0 mm 5 m/s 732 mmHg 90%
07:00 +2°C° 0 mm 5 m/s 732 mmHg 90%
08:00 +2°C° 0 mm 5 m/s 732 mmHg 90%
09:00 +2°C° 0 mm 5 m/s 731 mmHg 90%
10:00 +2°C° 0 mm 5 m/s 730 mmHg 90%
11:00 +3°C° 1.2 mm 6 m/s 730 mmHg 91%
12:00 +3°C° 1.2 mm 7 m/s 729 mmHg 91%
13:00 +4°C° 1.2 mm 7 m/s 729 mmHg 91%
14:00 +3°C° 0.4 mm 6 m/s 729 mmHg 88%
15:00 +2°C° 0.4 mm 6 m/s 729 mmHg 84%
16:00 +1°C° 0.4 mm 5 m/s 729 mmHg 81%
17:00 +1°C° 0 mm 5 m/s 730 mmHg 81%
18:00 +1°C° 0 mm 6 m/s 730 mmHg 81%
19:00 +1°C° 0 mm 6 m/s 730 mmHg 81%
20:00 +1°C° 0.1 mm 6 m/s 730 mmHg 82%
21:00 +2°C° 0.1 mm 6 m/s 730 mmHg 82%
22:00 +2°C° 0.1 mm 7 m/s 729 mmHg 82%
23:00 +2°C° 0.1 mm 6 m/s 729 mmHg 82%

Poimâine, 22 Ianuarie, Vineri

Timp Temperatura Precipitaţii Vânt Presiune Umiditate
00:00 +2°C° 0.1 mm 6 m/s 729 mmHg 82%
01:00 +1°C° 0.1 mm 6 m/s 729 mmHg 82%
02:00 +1°C° 0 mm 6 m/s 729 mmHg 85%
03:00 +1°C° 0 mm 6 m/s 728 mmHg 87%
04:00 +1°C° 0 mm 6 m/s 728 mmHg 89%
05:00 +1°C° 0.7 mm 5 m/s 727 mmHg 92%
06:00 0°C° 0.7 mm 5 m/s 726 mmHg 94%
07:00 0°C° 0.7 mm 4 m/s 725 mmHg 96%
08:00 0°C° 1.9 mm 4 m/s 724 mmHg 96%
09:00 +1°C° 1.9 mm 5 m/s 724 mmHg 96%
10:00 +1°C° 1.9 mm 5 m/s 723 mmHg 96%
11:00 +2°C° 0.4 mm 5 m/s 724 mmHg 91%
12:00 +2°C° 0.4 mm 6 m/s 724 mmHg 85%
13:00 +2°C° 0.4 mm 6 m/s 725 mmHg 80%
14:00 +1°C° 0 mm 6 m/s 725 mmHg 81%
15:00 +1°C° 0 mm 6 m/s 725 mmHg 82%
16:00 0°C° 0 mm 7 m/s 725 mmHg 83%
17:00 0°C° 0.4 mm 7 m/s 726 mmHg 86%
18:00 0°C° 0.4 mm 7 m/s 726 mmHg 89%
19:00 0°C° 0.4 mm 8 m/s 726 mmHg 92%
20:00 0°C° 0.1 mm 7 m/s 726 mmHg 91%
21:00 0°C° 0.1 mm 7 m/s 726 mmHg 90%
22:00 0°C° 0.1 mm 7 m/s 727 mmHg 89%
23:00 0°C° 0.3 mm 7 m/s 727 mmHg 89%

23 Ianuarie, Sâmbătă

Timp Temperatura Precipitaţii Vânt Presiune Umiditate
00:00 0°C° 0.3 mm 7 m/s 727 mmHg 90%
01:00 0°C° 0.3 mm 7 m/s 727 mmHg 91%
02:00 0°C° 0.1 mm 7 m/s 728 mmHg 90%
03:00 0°C° 0.1 mm 7 m/s 728 mmHg 88%
04:00 0°C° 0.1 mm 7 m/s 728 mmHg 87%
05:00 0°C° 0.3 mm 7 m/s 729 mmHg 87%
06:00 0°C° 0.3 mm 7 m/s 730 mmHg 87%
07:00 +1°C° 0.3 mm 6 m/s 731 mmHg 87%
08:00 +1°C° 0 mm 6 m/s 732 mmHg 85%
09:00 +1°C° 0 mm 6 m/s 732 mmHg 84%
10:00 +1°C° 0 mm 5 m/s 733 mmHg 82%
11:00 +1°C° 0 mm 5 m/s 734 mmHg 80%
12:00 +1°C° 0 mm 5 m/s 734 mmHg 79%
13:00 +1°C° 0 mm 5 m/s 735 mmHg 77%
14:00 +1°C° 0 mm 4 m/s 735 mmHg 81%
15:00 0°C° 0 mm 4 m/s 736 mmHg 85%
16:00 +1°C° 0 mm 3 m/s 736 mmHg 89%
17:00 +1°C° 0 mm 3 m/s 736 mmHg 90%
18:00 0°C° 0 mm 3 m/s 736 mmHg 91%
19:00 0°C° 0 mm 3 m/s 737 mmHg 92%
20:00 0°C° 0 mm 3 m/s 737 mmHg 92%
21:00 +1°C° 0 mm 2 m/s 737 mmHg 92%
22:00 +1°C° 0 mm 2 m/s 737 mmHg 92%
23:00 +1°C° 0 mm 2 m/s 737 mmHg 93%

24 Ianuarie, Duminică

Timp Temperatura Precipitaţii Vânt Presiune Umiditate
00:00 +1°C° 0 mm 2 m/s 737 mmHg 94%
01:00 +2°C° 0 mm 1 m/s 737 mmHg 95%
02:00 +2°C° 0.1 mm 1 m/s 737 mmHg 96%
03:00 +2°C° 0.1 mm 1 m/s 737 mmHg 97%
04:00 +1°C° 0.1 mm 1 m/s 737 mmHg 97%
05:00 +1°C° 0.3 mm 1 m/s 737 mmHg 97%
06:00 +1°C° 0.3 mm 1 m/s 737 mmHg 97%
07:00 0°C° 0.3 mm 0 m/s 737 mmHg 97%
08:00 0°C° 0.3 mm 0 m/s 737 mmHg 97%
09:00 0°C° 0.3 mm 0 m/s 737 mmHg 97%
10:00 0°C° 0.3 mm 0 m/s 738 mmHg 97%
11:00 +1°C° 0.2 mm 0 m/s 738 mmHg 96%
12:00 +1°C° 0.2 mm 0 m/s 738 mmHg 96%
13:00 +1°C° 0.2 mm 0 m/s 738 mmHg 96%
14:00 +1°C° 0.1 mm 0 m/s 738 mmHg 96%
15:00 +2°C° 0.1 mm 1 m/s 738 mmHg 96%
16:00 +2°C° 0.1 mm 1 m/s 738 mmHg 97%
17:00 +1°C° 0.1 mm 1 m/s 738 mmHg 97%
18:00 +1°C° 0.1 mm 1 m/s 738 mmHg 97%
19:00 0°C° 0.1 mm 1 m/s 738 mmHg 97%
20:00 0°C° 0 mm 1 m/s 739 mmHg 96%
21:00 0°C° 0 mm 1 m/s 739 mmHg 96%
22:00 0°C° 0 mm 1 m/s 739 mmHg 95%
23:00 -1°C° 0 mm 1 m/s 739 mmHg 95%

25 Ianuarie, Luni

Timp Temperatura Precipitaţii Vânt Presiune Umiditate
00:00 -1°C° 0 mm 1 m/s 739 mmHg 95%
01:00 -1°C° 0 mm 1 m/s 740 mmHg 95%
02:00 -1°C° 0.1 mm 1 m/s 740 mmHg 95%
03:00 -1°C° 0.1 mm 1 m/s 740 mmHg 95%
04:00 -1°C° 0.1 mm 1 m/s 740 mmHg 96%
05:00 -2°C° 0 mm 0 m/s 740 mmHg 96%
06:00 -2°C° 0 mm 0 m/s 740 mmHg 96%
07:00 -2°C° 0 mm 0 m/s 741 mmHg 96%
08:00 -2°C° 0 mm 0 m/s 741 mmHg 95%
09:00 -1°C° 0 mm 0 m/s 741 mmHg 94%
10:00 0°C° 0 mm 1 m/s 742 mmHg 93%
11:00 +1°C° 0 mm 1 m/s 742 mmHg 91%
12:00 +1°C° 0 mm 1 m/s 742 mmHg 89%
13:00 +1°C° 0 mm 2 m/s 743 mmHg 88%
14:00 +1°C° 0 mm 2 m/s 743 mmHg 89%
15:00 -1°C° 0 mm 2 m/s 743 mmHg 90%
16:00 -1°C° 0 mm 2 m/s 743 mmHg 92%
17:00 -1°C° 0 mm 2 m/s 744 mmHg 91%
18:00 -2°C° 0 mm 2 m/s 744 mmHg 91%
19:00 -2°C° 0 mm 2 m/s 744 mmHg 90%
20:00 -2°C° 0 mm 2 m/s 744 mmHg 89%
21:00 -2°C° 0 mm 2 m/s 745 mmHg 87%
22:00 -2°C° 0 mm 3 m/s 745 mmHg 86%
23:00 -2°C° 0 mm 3 m/s 745 mmHg 87%
Arată mai mult

Formular de consimțământ

Meteoprog și furnizorii noștri de servicii pot stoca și accesa date personale, precum cookies, identificatori de dispozitiv sau alte tehnologii similare pe dispozitivul dumneavoastră și procesa astfel de date pentru a personaliza conținutul și reclamele, dar și pentru a oferi caracteristici de social media și pentru a analiza traficul.

  • Stocarea și/sau accesarea informațiilor pe dispozitivul dumneavoastră

    Cookies, identificatori de dispozitiv sau alte informații pot fi stocate sau accesate pe dispozitiv în scopurile indicate mai sus.

  • Reclame și conținut personalizat, evaluarea reclamelor și a conținutului, informații despre audiențe și dezvoltarea produselor

    Reclamele și conținutul pot fi personalizate pe baza unui profil. Pot fi adăugate date suplimentare pentru a personaliza mai bine reclamele și conținutul. Performanța reclamelor și conținutului poate fi măsurată. Pot fi obținute informații despre utilizatorii care au văzut reclamele și conținutul. Aceste date pot fi utilizate pentru a dezvolta sau îmbunătăți experiența utilizatorilor, sistemele și software-ul.

Dând clic pe ‘Sunt de acord’, permiteți utilizarea cookie-urilor menționate, a identificatorilor de dispozitiv, balizelor web sau altor tehnologii similare. Setările pot fi modificate din browser-ul dispozitivului dumneavoastră.

În anumite scopuri, interesele legitime pot prima asupra consimțământului. Puteți citi mai multe informații în acest sens în Politica privind Confidențialitatea Datelor și Cookie.